GSIXT LILH-LILR

Flight info

Callsign GSIXT
Flight time 0h 34m
Altitude 5500
Route DCT
Aircraft P28A/L-V/N

Departure

Time 2026-05-01 08:09
Airport Voghera-Rivanazzano Airfield (LILH)

Arrival

Time 2026-05-01 08:43
Airport Cremona-Migliaro Airfield (LILR)
Time Latitude Longitude Altitude Speed Heading
2026-05-01 08:01 44.95100 9.01593 419 ft 0 kts 248°
2026-05-01 08:04 44.95100 9.01594 417 ft 0 kts 254°
2026-05-01 08:05 44.95100 9.01593 417 ft 0 kts 257°
2026-05-01 08:05 44.95100 9.01592 417 ft 0 kts 255°
2026-05-01 08:06 44.95099 9.01590 417 ft 1 kts 246°
2026-05-01 08:06 44.95092 9.01600 411 ft 2 kts 53°
2026-05-01 08:07 44.95099 9.01648 418 ft 0 kts 128°
2026-05-01 08:07 44.95088 9.01666 413 ft 7 kts 130°
2026-05-01 08:08 44.95070 9.01730 418 ft 8 kts
2026-05-01 08:08 44.95539 9.01485 450 ft 70 kts 342°
2026-05-01 08:09 44.96475 9.00988 830 ft 74 kts 344°
2026-05-01 08:09 44.96962 9.01089 1092 ft 70 kts 39°
2026-05-01 08:09 44.97084 9.01704 1369 ft 69 kts 98°
2026-05-01 08:10 44.96955 9.03065 1839 ft 72 kts 95°
2026-05-01 08:10 44.96836 9.04460 2347 ft 70 kts 94°
2026-05-01 08:11 44.96786 9.05835 2868 ft 70 kts 94°
2026-05-01 08:11 44.96673 9.07248 3448 ft 73 kts 95°
2026-05-01 08:12 44.96903 9.08670 3962 ft 76 kts 69°
2026-05-01 08:12 44.97068 9.09361 4214 ft 75 kts 68°
2026-05-01 08:12 44.97308 9.10802 4710 ft 76 kts 72°
2026-05-01 08:13 44.97435 9.11532 4960 ft 77 kts 70°
2026-05-01 08:13 44.97567 9.12259 5243 ft 76 kts 70°
2026-05-01 08:13 44.97917 9.13769 5535 ft 88 kts 61°
2026-05-01 08:14 44.98169 9.14592 5571 ft 94 kts 64°
2026-05-01 08:14 44.98389 9.15489 5572 ft 100 kts 69°
2026-05-01 08:14 44.98607 9.16451 5570 ft 105 kts 69°
2026-05-01 08:14 44.98814 9.17452 5559 ft 106 kts 70°
2026-05-01 08:15 44.99026 9.18461 5539 ft 109 kts 69°
2026-05-01 08:15 44.99493 9.20502 5548 ft 109 kts 69°
2026-05-01 08:15 44.99731 9.21527 5552 ft 111 kts 69°
2026-05-01 08:16 44.99972 9.22558 5567 ft 111 kts 70°
2026-05-01 08:16 45.00205 9.23601 5534 ft 113 kts 70°
2026-05-01 08:16 45.00427 9.24642 5529 ft 110 kts 71°
2026-05-01 08:16 45.00653 9.25667 5513 ft 108 kts 68°
2026-05-01 08:17 45.00902 9.26667 5504 ft 106 kts 67°
2026-05-01 08:17 45.01157 9.27625 5533 ft 103 kts 66°
2026-05-01 08:17 45.01404 9.28586 5537 ft 106 kts 70°
2026-05-01 08:17 45.01612 9.29579 5548 ft 106 kts 69°
2026-05-01 08:18 45.01812 9.30570 5547 ft 107 kts 70°
2026-05-01 08:18 45.02265 9.32548 5551 ft 106 kts 66°
2026-05-01 08:19 45.02767 9.34527 5568 ft 107 kts 69°
2026-05-01 08:19 45.03018 9.35547 5561 ft 110 kts 67°
2026-05-01 08:19 45.03299 9.36554 5523 ft 111 kts 66°
2026-05-01 08:19 45.03539 9.37573 5535 ft 108 kts 70°
2026-05-01 08:20 45.03728 9.38602 5509 ft 108 kts 72°
2026-05-01 08:20 45.03926 9.39620 5520 ft 106 kts 71°
2026-05-01 08:20 45.04153 9.40608 5540 ft 105 kts 68°
2026-05-01 08:20 45.04410 9.41582 5523 ft 106 kts 67°
2026-05-01 08:21 45.04667 9.42538 5523 ft 104 kts 66°
2026-05-01 08:21 45.04916 9.43515 5548 ft 105 kts 69°
2026-05-01 08:21 45.05098 9.44519 5519 ft 105 kts 75°
2026-05-01 08:21 45.05202 9.45548 5523 ft 106 kts 77°
2026-05-01 08:22 45.05372 9.46553 5537 ft 104 kts 71°
2026-05-01 08:22 45.05585 9.47538 5529 ft 105 kts 69°
2026-05-01 08:22 45.05816 9.48519 5527 ft 107 kts 69°
2026-05-01 08:22 45.06069 9.49505 5531 ft 106 kts 69°
2026-05-01 08:23 45.06308 9.50497 5510 ft 107 kts 70°
2026-05-01 08:23 45.06529 9.51490 5530 ft 105 kts 71°
2026-05-01 08:23 45.06736 9.52487 5527 ft 106 kts 72°
2026-05-01 08:23 45.06935 9.53498 5518 ft 106 kts 73°
2026-05-01 08:24 45.07111 9.54515 5538 ft 105 kts 74°
2026-05-01 08:24 45.07283 9.55521 5556 ft 106 kts 74°
2026-05-01 08:24 45.07483 9.56523 5566 ft 105 kts 70°
2026-05-01 08:24 45.07710 9.57513 5551 ft 105 kts 70°
2026-05-01 08:25 45.07945 9.58497 5562 ft 105 kts 69°
2026-05-01 08:25 45.08190 9.59468 5560 ft 105 kts 67°
2026-05-01 08:25 45.08446 9.60422 5562 ft 106 kts 69°
2026-05-01 08:25 45.08620 9.61439 5536 ft 106 kts 78°
2026-05-01 08:26 45.08734 9.62488 5579 ft 107 kts 79°
2026-05-01 08:26 45.08879 9.63472 5447 ft 100 kts 74°
2026-05-01 08:26 45.09078 9.64421 5290 ft 99 kts 70°
2026-05-01 08:26 45.09304 9.65333 5158 ft 99 kts 70°
2026-05-01 08:27 45.09528 9.66227 5070 ft 97 kts 70°
2026-05-01 08:27 45.09743 9.67130 4995 ft 96 kts 71°
2026-05-01 08:27 45.09947 9.68043 4856 ft 98 kts 71°
2026-05-01 08:27 45.10159 9.68975 4767 ft 99 kts 71°
2026-05-01 08:28 45.10394 9.69891 4660 ft 99 kts 71°
2026-05-01 08:28 45.10627 9.70792 4506 ft 96 kts 70°
2026-05-01 08:28 45.10847 9.71686 4375 ft 98 kts 76°
2026-05-01 08:28 45.10997 9.72632 4295 ft 100 kts 77°
2026-05-01 08:29 45.11139 9.73610 4243 ft 99 kts 77°
2026-05-01 08:29 45.11302 9.74551 4113 ft 99 kts 81°
2026-05-01 08:29 45.11422 9.75524 3907 ft 100 kts 79°
2026-05-01 08:29 45.11556 9.76498 3849 ft 101 kts 76°
2026-05-01 08:30 45.11758 9.77416 3791 ft 98 kts 75°
2026-05-01 08:30 45.11888 9.78356 3676 ft 96 kts 82°
2026-05-01 08:30 45.11999 9.79298 3548 ft 96 kts 82°
2026-05-01 08:30 45.12102 9.80225 3553 ft 98 kts 84°
2026-05-01 08:31 45.12195 9.81209 3570 ft 103 kts 83°
2026-05-01 08:31 45.12292 9.82204 3573 ft 101 kts 83°
2026-05-01 08:31 45.12373 9.83229 3637 ft 107 kts 84°
2026-05-01 08:31 45.12465 9.84296 3601 ft 109 kts 84°
2026-05-01 08:32 45.12550 9.85361 3606 ft 105 kts 85°
2026-05-01 08:32 45.12635 9.86365 3623 ft 105 kts 85°
2026-05-01 08:32 45.12706 9.87410 3682 ft 106 kts 85°
2026-05-01 08:32 45.12787 9.88472 3604 ft 109 kts 85°
2026-05-01 08:33 45.12891 9.89541 3578 ft 107 kts 84°
2026-05-01 08:33 45.12983 9.90587 3497 ft 107 kts 84°
2026-05-01 08:33 45.13045 9.91610 3454 ft 101 kts 88°
2026-05-01 08:33 45.13130 9.92593 3272 ft 102 kts 84°
2026-05-01 08:34 45.13211 9.93597 3118 ft 103 kts 84°
2026-05-01 08:34 45.13277 9.94607 3060 ft 102 kts 87°
2026-05-01 08:34 45.13336 9.95599 2970 ft 99 kts 88°
2026-05-01 08:34 45.13321 9.96567 2756 ft 100 kts 95°
2026-05-01 08:35 45.13276 9.97572 2613 ft 101 kts 95°
2026-05-01 08:35 45.13304 9.98559 2415 ft 102 kts 90°
2026-05-01 08:35 45.13215 9.99561 2260 ft 104 kts 101°
2026-05-01 08:35 45.13164 10.00596 2343 ft 106 kts 85°
2026-05-01 08:36 45.13520 10.01536 2400 ft 114 kts 47°
2026-05-01 08:36 45.14183 10.02139 2509 ft 114 kts 27°
2026-05-01 08:36 45.14975 10.01956 2477 ft 124 kts 331°
2026-05-01 08:36 45.15682 10.01254 2428 ft 123 kts 330°
2026-05-01 08:37 45.16362 10.00607 2550 ft 115 kts 330°
2026-05-01 08:37 45.17018 9.99979 2577 ft 114 kts 332°
2026-05-01 08:37 45.17663 9.99323 2437 ft 113 kts 327°
2026-05-01 08:37 45.18301 9.98675 2293 ft 109 kts 336°
2026-05-01 08:38 45.19018 9.98501 2176 ft 103 kts 17°
2026-05-01 08:38 45.19538 9.99098 2057 ft 97 kts 70°
2026-05-01 08:38 45.19521 9.99719 1963 ft 95 kts 114°
2026-05-01 08:38 45.18944 10.00174 1860 ft 102 kts 159°
2026-05-01 08:39 45.18249 10.00382 1723 ft 102 kts 167°
2026-05-01 08:39 45.17531 10.00507 1601 ft 104 kts 170°
2026-05-01 08:39 45.16811 10.00600 1433 ft 102 kts 169°
2026-05-01 08:39 45.16117 10.00689 1348 ft 101 kts 178°
2026-05-01 08:40 45.15258 9.99138 1344 ft 112 kts 248°
2026-05-01 08:40 45.15008 9.98155 1474 ft 104 kts 249°
2026-05-01 08:40 45.14765 9.97172 1442 ft 102 kts 251°
2026-05-01 08:41 45.14597 9.96217 1422 ft 100 kts 264°
2026-05-01 08:41 45.14896 9.95428 1374 ft 90 kts 336°
2026-05-01 08:41 45.15488 9.95218 1257 ft 88 kts 358°
2026-05-01 08:41 45.16031 9.95331 1181 ft 74 kts 40°
2026-05-01 08:42 45.16207 9.95945 1049 ft 70 kts 83°
2026-05-01 08:42 45.16372 9.96612 979 ft 74 kts 59°
2026-05-01 08:42 45.16686 9.97214 909 ft 76 kts 57°
2026-05-01 08:42 45.17002 9.97832 794 ft 77 kts 67°
2026-05-01 08:43 45.17112 9.98549 563 ft 73 kts 94°
2026-05-01 08:43 45.16990 9.99224 329 ft 69 kts 105°
2026-05-01 08:43 45.16875 9.99873 163 ft 65 kts 102°
2026-05-01 08:43 45.16799 10.00343 158 ft 35 kts 103°
2026-05-01 08:44 45.16749 10.00555 155 ft 9 kts 154°
2026-05-01 08:44 45.16709 10.00560 156 ft 9 kts 154°
2026-05-01 08:44 45.16695 10.00622 155 ft 10 kts 99°
2026-05-01 08:44 45.16670 10.00669 155 ft 0 kts 198°